Location: Doughton Park
(36.4224°N, 81.1835°W)
Time: 18:27:18
(UTC-04:00)

ISS - All Passes

Search period start: 28 August 2016 00:00
Search period end: 07 September 2016 00:00
Orbit: 402 x 406 km, 51.6° (Epoch: 29 August)

Date Brightness Start Highest point End Pass type
(mag) Time Alt. Az. Time Alt. Az. Time Alt. Az.
28 Aug - 08:26:02 10° SSW 08:29:00 32° SE 08:31:59 10° ENE daylight
28 Aug - 10:02:47 10° W 10:05:30 24° NNW 10:08:15 10° NNE daylight
28 Aug - 14:56:09 10° NNW 14:58:31 18° NNE 15:00:53 10° ENE daylight
28 Aug - 16:31:59 10° WNW 16:35:11 51° SW 16:38:22 10° SSE daylight
29 Aug - 07:34:42 10° SSE 07:36:47 16° SE 07:38:53 10° E daylight
29 Aug - 09:09:52 10° WSW 09:12:59 41° NW 09:16:09 10° NE daylight
29 Aug - 14:04:25 10° N 14:05:51 12° NNE 14:07:18 10° NE daylight
29 Aug - 15:39:33 10° NW 15:42:50 72° NE 15:46:05 10° SE daylight
30 Aug - 08:17:18 10° SW 08:20:34 86° NW 08:23:51 10° NE daylight
30 Aug - 09:55:45 10° NW 09:57:27 13° NNW 09:59:11 10° N daylight
30 Aug - 14:47:18 10° NNW 14:50:22 36° NE 14:53:26 10° ESE daylight
30 Aug - 16:24:15 10° W 16:26:39 19° SW 16:29:02 10° S daylight
31 Aug - 07:25:06 10° SSW 07:28:13 42° SE 07:31:21 10° ENE daylight
31 Aug - 09:02:17 10° W 09:04:49 20° NNW 09:07:21 10° NNE daylight
31 Aug - 13:55:14 10° NNW 13:57:50 21° NNE 14:00:25 10° E daylight
31 Aug - 15:31:17 10° WNW 15:34:23 39° SW 15:37:27 10° SSE daylight
01 Sep - 06:33:27 10° S 06:35:56 20° SE 06:38:25 10° E daylight
01 Sep - 08:09:13 10° WSW 08:12:14 33° NW 08:15:16 10° NNE daylight
01 Sep - 13:03:20 10° N 13:05:10 14° NNE 13:06:59 10° ENE daylight
01 Sep - 14:38:44 10° NW 14:42:01 87° SW 14:45:18 10° SE daylight
02 Sep - 07:16:30 10° WSW 07:19:44 67° NW 07:23:00 10° NE daylight
02 Sep - 08:55:25 10° NW 08:56:44 12° NNW 08:58:02 10° N daylight
02 Sep - 13:46:23 10° NW 13:49:33 44° NE 13:52:43 10° ESE daylight
02 Sep - 15:23:48 10° W 15:25:45 15° SW 15:27:41 10° SSW daylight
03 Sep - 06:24:07 10° SW 06:27:19 55° SE 06:30:32 10° ENE visible
03 Sep - 08:01:43 10° WNW 08:04:00 17° NNW 08:06:19 10° NNE daylight
03 Sep - 12:54:13 10° NNW 12:57:00 25° NNE 12:59:46 10° E daylight
03 Sep - 14:30:32 10° WNW 14:33:28 30° SW 14:36:23 10° SSE daylight
04 Sep - 05:32:13 10° S 05:34:59 25° SE 05:37:45 10° ENE visible
04 Sep - 07:08:29 10° W 07:11:22 28° NNW 07:14:16 10° NNE daylight
04 Sep - 12:02:12 10° NNW 12:04:20 16° NNE 12:06:26 10° ENE daylight
04 Sep - 13:37:50 10° NW 13:41:05 67° SW 13:44:20 10° SE daylight
05 Sep - 04:41:13 10° SSE 04:42:42 13° SE 04:44:10 10° E visible
05 Sep - 06:15:36 10° WSW 06:18:48 52° NW 06:22:01 10° NE visible
05 Sep - 07:55:10 10° NNW 07:55:53 11° NNW 07:56:36 10° N daylight
05 Sep - 11:10:38 10° N 11:11:34 11° NNE 11:12:30 10° NE daylight
05 Sep - 12:45:23 10° NW 12:48:37 56° NE 12:51:51 10° ESE daylight
05 Sep - 14:23:28 10° WSW 14:24:42 12° SW 14:25:56 10° SSW daylight
06 Sep - 05:23:05 10° SW 05:26:19 73° SE 05:29:35 10° NE visible
06 Sep - 07:01:05 10° WNW 07:03:06 15° NNW 07:05:08 10° NNE daylight
06 Sep - 11:53:06 10° NNW 11:56:03 29° NNE 11:58:59 10° E daylight
06 Sep - 13:29:42 10° WNW 13:32:25 24° SW 13:35:06 10° S daylight
